IRIDIUM 56

Last updated on Wed Nov 29 2017 00:19:02 GMT+0000 (Greenwich Mean Time)

1 25170U 98010B 17332.29111944 .00000155 00000-0 48197-4 0 9994 2 25170 86.3957 281.8774 0002239 88.3261 271.8191 14.34234184 35287
UTC large
Height (km)
Speed (km/s)
/
Latitude / Longitude
Inclination (degrees)
Orbital Period (minutes)
Azimuth
Elevation
Range (km)
Doppler Factor

Next 0 passes for location: London (51.5072 / 0.1276)

Sorry there are no passes over London.